E25WRM Weather Reports


Display with metric or nautical units.
time (UTC)temp
F
wind
direction
speed
MPH
gust
MPH
rain 1hr
in
rain 24hr
in
rain mn
in
humidity
%
barometer
mb
20260504222839 95 0 0.0 0.0 0.00 0.00 0.00 47 1006.0
20260504221329 95 0 0.0 0.0 0.00 0.00 0.00 47 1006.0
20260504215819 95 0 0.0 0.0 0.00 0.00 0.00 46 1006.0
20260504214309 95 0 0.0 0.0 0.00 0.00 0.00 46 1006.0
20260504212759 95 0 0.0 0.0 0.00 0.00 0.00 45 1005.0
20260504211249 94 0 0.0 0.0 0.00 0.00 0.00 43 1005.0
20260504205739 94 0 0.0 0.0 0.00 0.00 0.00 42 1005.0
20260504204229 93 0 0.0 0.0 0.00 0.00 0.00 40 1005.0
20260504202719 93 0 0.0 0.0 0.00 0.00 0.00 38 1004.0
20260504201209 92 0 0.0 0.0 0.00 0.00 0.00 35 1005.0
20260504195659 91 0 0.0 0.0 0.00 0.00 0.00 31 1005.0
20260504194149 91 0 0.0 0.0 0.00 0.00 0.00 31 1004.0
20260504192639 91 0 0.0 0.0 0.00 0.00 0.00 29 1004.0
20260504191129 91 0 0.0 0.0 0.00 0.00 0.00 29 1004.0
20260504185619 91 0 0.0 0.0 0.00 0.00 0.00 29 1004.0
20260504184109 91 0 0.0 0.0 0.00 0.00 0.00 29 1004.0
20260504182559 91 0 0.0 0.0 0.00 0.00 0.00 29 1004.0
20260504181049 91 0 0.0 0.0 0.00 0.00 0.00 29 1005.0
20260504175539 92 0 0.0 0.0 0.00 0.00 0.00 29 1005.0
20260504174029 92 0 0.0 0.0 0.00 0.00 0.00 29 1005.0
20260504172519 92 0 0.0 0.0 0.00 0.00 0.00 30 1005.0
20260504171009 92 0 0.0 0.0 0.00 0.00 0.00 30 1005.0
20260504150849 93 0 0.0 0.0 0.00 0.00 0.00 33 1005.0
20260504140809 94 0 0.0 0.0 0.00 0.00 0.00 32 1003.0
20260504110311 101 0 0.0 0.0 0.00 0.00 0.00 42 1001.0
20260504100250 100 0 0.0 0.0 0.00 0.00 0.00 45 1000.0
20260504080554 100 0 0.0 0.0 0.00 0.00 0.00 49 1001.0
20260504050354 103 0 0.0 0.0 0.00 0.00 0.00 43 1004.0
20260504044844 102 0 0.0 0.0 0.00 0.00 0.00 45 1005.0
20260504043334 100 0 0.0 0.0 0.00 0.00 0.00 50 1005.0
20260504041824 100 0 0.0 0.0 0.00 0.00 0.00 50 1005.0
20260504040314 100 0 0.0 0.0 0.00 0.00 0.00 49 1005.0
20260504034804 100 0 0.0 0.0 0.00 0.00 0.00 51 1005.0
20260504033254 100 0 0.0 0.0 0.00 0.00 0.00 50 1005.0
20260504031744 99 0 0.0 0.0 0.00 0.00 0.00 52 1005.0
20260504030234 99 0 0.0 0.0 0.00 0.00 0.00 52 1005.0
20260504024724 98 0 0.0 0.0 0.00 0.00 0.00 52 1005.0
20260504023214 97 0 0.0 0.0 0.00 0.00 0.00 51 1005.0
20260504021704 96 0 0.0 0.0 0.00 0.00 0.00 52 1005.0
20260504020154 97 0 0.0 0.0 0.00 0.00 0.00 52 1005.0
20260504014644 96 0 0.0 0.0 0.00 0.00 0.00 51 1005.0
20260504013134 96 0 0.0 0.0 0.00 0.00 0.00 51 1005.0
20260504011624 96 0 0.0 0.0 0.00 0.00 0.00 51 1005.0
20260504010114 96 0 0.0 0.0 0.00 0.00 0.00 53 1005.0
20260504004604 95 0 0.0 0.0 0.00 0.00 0.00 54 1005.0
20260504003054 95 0 0.0 0.0 0.00 0.00 0.00 49 1005.0
20260504001544 95 0 0.0 0.0 0.00 0.00 0.00 42 1004.0
20260504000034 94 0 0.0 0.0 0.00 0.00 0.00 41 1004.0
20260503234524 94 0 0.0 0.0 0.00 0.00 0.00 40 1004.0
20260503233014 94 0 0.0 0.0 0.00 0.00 0.00 39 1004.0
20260503231504 94 0 0.0 0.0 0.00 0.00 0.00 38 1004.0
20260503225954 94 0 0.0 0.0 0.00 0.00 0.00 37 1004.0
20260503224444 93 0 0.0 0.0 0.00 0.00 0.00 36 1003.0